• In Latvia
  • List of Countries
  • For 7 days
  • Water Temperature
  • Satellite Maps
  • Weather Map
  • Weather Widgets
  • user-avatar
    Login

    Hourly Weather Ivanovo

    Today, 24 September, Monday

    Time Temperature Precipitation Wind Pressure Humidity
    00:00 +7°C° 0 mm 3 mps 741 mmHg 92%
    01:00 +7°C° 0 mm 3 mps 741 mmHg 94%
    02:00 +6°C° 0 mm 2 mps 741 mmHg 96%
    03:00 +6°C° 0 mm 2 mps 741 mmHg 97%
    04:00 +6°C° 0 mm 2 mps 741 mmHg 97%
    05:00 +5°C° 0 mm 3 mps 741 mmHg 97%
    06:00 +5°C° 0 mm 3 mps 741 mmHg 94%
    07:00 +7°C° 0 mm 3 mps 742 mmHg 91%
    08:00 +8°C° 0 mm 3 mps 742 mmHg 88%
    09:00 +9°C° 0 mm 3 mps 742 mmHg 82%
    10:00 +10°C° 0 mm 3 mps 742 mmHg 77%
    11:00 +11°C° 0 mm 3 mps 741 mmHg 72%
    12:00 +12°C° 0 mm 3 mps 741 mmHg 69%
    13:00 +12°C° 0 mm 3 mps 741 mmHg 66%
    14:00 +13°C° 0 mm 3 mps 741 mmHg 63%
    15:00 +12°C° 0.5 mm 3 mps 741 mmHg 72%
    16:00 +11°C° 0.5 mm 3 mps 740 mmHg 80%
    17:00 +9°C° 0.5 mm 3 mps 740 mmHg 89%
    18:00 +9°C° 1 mm 3 mps 740 mmHg 91%
    19:00 +9°C° 1 mm 3 mps 739 mmHg 93%
    20:00 +9°C° 1 mm 3 mps 738 mmHg 95%
    21:00 +8°C° 1.3 mm 3 mps 738 mmHg 94%
    22:00 +7°C° 1.3 mm 4 mps 737 mmHg 94%
    23:00 +7°C° 1.3 mm 4 mps 736 mmHg 93%

    Tomorrow, 25 September, Tuesday

    Time Temperature Precipitation Wind Pressure Humidity
    00:00 +7°C° 1.9 mm 5 mps 735 mmHg 94%
    01:00 +7°C° 1.9 mm 5 mps 734 mmHg 94%
    02:00 +7°C° 1.9 mm 5 mps 733 mmHg 94%
    03:00 +7°C° 1.6 mm 5 mps 733 mmHg 94%
    04:00 +7°C° 1.6 mm 5 mps 733 mmHg 94%
    05:00 +7°C° 1.6 mm 4 mps 732 mmHg 94%
    06:00 +7°C° 1.3 mm 5 mps 732 mmHg 93%
    07:00 +7°C° 1.3 mm 5 mps 733 mmHg 93%
    08:00 +7°C° 1.3 mm 5 mps 733 mmHg 92%
    09:00 +7°C° 1.2 mm 5 mps 734 mmHg 92%
    10:00 +7°C° 1.2 mm 6 mps 734 mmHg 91%
    11:00 +7°C° 1.2 mm 6 mps 735 mmHg 90%
    12:00 +5°C° 0.9 mm 7 mps 735 mmHg 89%
    13:00 +5°C° 0.9 mm 7 mps 736 mmHg 88%
    14:00 +5°C° 0.9 mm 8 mps 737 mmHg 87%
    15:00 +5°C° 0.7 mm 8 mps 738 mmHg 86%
    16:00 +5°C° 0.7 mm 8 mps 739 mmHg 86%
    17:00 +5°C° 0.7 mm 8 mps 739 mmHg 85%
    18:00 +4°C° 0.3 mm 8 mps 740 mmHg 84%
    19:00 +4°C° 0.3 mm 8 mps 741 mmHg 83%
    20:00 +4°C° 0.3 mm 8 mps 742 mmHg 82%
    21:00 +2°C° 0.1 mm 8 mps 743 mmHg 80%
    22:00 +2°C° 0.1 mm 8 mps 744 mmHg 78%
    23:00 +2°C° 0.1 mm 7 mps 745 mmHg 77%

    Day after tomorrow, 26 September, Wednesday

    Time Temperature Precipitation Wind Pressure Humidity
    00:00 0°C° 0 mm 7 mps 746 mmHg 76%
    01:00 0°C° 0 mm 7 mps 746 mmHg 76%
    02:00 -1°C° 0 mm 6 mps 747 mmHg 75%
    03:00 -1°C° 0 mm 6 mps 748 mmHg 75%
    04:00 -1°C° 0 mm 5 mps 748 mmHg 75%
    05:00 -1°C° 0 mm 5 mps 749 mmHg 75%
    06:00 0°C° 0 mm 5 mps 749 mmHg 71%
    07:00 +1°C° 0 mm 5 mps 750 mmHg 67%
    08:00 +1°C° 0 mm 4 mps 750 mmHg 64%
    09:00 +4°C° 0 mm 4 mps 750 mmHg 62%
    10:00 +6°C° 0 mm 4 mps 750 mmHg 60%
    11:00 +8°C° 0 mm 4 mps 750 mmHg 57%
    12:00 +8°C° 0 mm 5 mps 749 mmHg 59%
    13:00 +9°C° 0 mm 5 mps 749 mmHg 60%
    14:00 +9°C° 0 mm 5 mps 749 mmHg 62%
    15:00 +9°C° 0 mm 5 mps 748 mmHg 64%
    16:00 +8°C° 0 mm 5 mps 747 mmHg 66%
    17:00 +7°C° 0 mm 5 mps 746 mmHg 68%
    18:00 +7°C° 0.2 mm 6 mps 745 mmHg 71%
    19:00 +7°C° 0.2 mm 6 mps 744 mmHg 73%
    20:00 +5°C° 0.2 mm 7 mps 743 mmHg 76%
    21:00 +5°C° 0.9 mm 7 mps 742 mmHg 80%
    22:00 +5°C° 0.9 mm 8 mps 741 mmHg 83%
    23:00 +5°C° 0.9 mm 8 mps 739 mmHg 87%

    27 September, Thursday

    Time Temperature Precipitation Wind Pressure Humidity
    00:00 +5°C° 0.9 mm 8 mps 738 mmHg 88%
    01:00 +5°C° 0.9 mm 7 mps 737 mmHg 89%
    02:00 +4°C° 0.9 mm 7 mps 737 mmHg 89%
    03:00 +4°C° 0.3 mm 6 mps 736 mmHg 89%
    04:00 +4°C° 0.3 mm 6 mps 736 mmHg 89%
    05:00 +5°C° 0.3 mm 5 mps 736 mmHg 89%
    06:00 +6°C° 0 mm 5 mps 736 mmHg 85%
    07:00 +5°C° 0 mm 6 mps 736 mmHg 82%
    08:00 +5°C° 0 mm 6 mps 736 mmHg 79%
    09:00 +5°C° 0.2 mm 6 mps 736 mmHg 76%
    10:00 +7°C° 0.2 mm 6 mps 736 mmHg 72%
    11:00 +8°C° 0.2 mm 7 mps 736 mmHg 69%
    12:00 +8°C° 0.3 mm 7 mps 736 mmHg 69%
    13:00 +8°C° 0.3 mm 6 mps 736 mmHg 69%
    14:00 +8°C° 0.3 mm 6 mps 736 mmHg 69%
    15:00 +7°C° 0 mm 6 mps 737 mmHg 72%
    16:00 +7°C° 0 mm 5 mps 737 mmHg 74%
    17:00 +6°C° 0 mm 5 mps 737 mmHg 77%
    18:00 +6°C° 0 mm 5 mps 737 mmHg 79%
    19:00 +5°C° 0 mm 5 mps 738 mmHg 81%
    20:00 +5°C° 0 mm 5 mps 738 mmHg 82%
    21:00 +3°C° 0 mm 5 mps 738 mmHg 83%
    22:00 +3°C° 0 mm 5 mps 739 mmHg 84%
    23:00 +3°C° 0 mm 5 mps 739 mmHg 85%

    28 September, Friday

    Time Temperature Precipitation Wind Pressure Humidity
    00:00 +3°C° 0 mm 4 mps 739 mmHg 86%
    01:00 +3°C° 0 mm 4 mps 740 mmHg 86%
    02:00 +3°C° 0 mm 4 mps 740 mmHg 87%
    03:00 +1°C° 0 mm 4 mps 740 mmHg 88%
    04:00 +1°C° 0 mm 4 mps 740 mmHg 88%
    05:00 +1°C° 0 mm 4 mps 741 mmHg 88%
    06:00 +3°C° 0 mm 4 mps 741 mmHg 85%
    07:00 +3°C° 0 mm 4 mps 741 mmHg 81%
    08:00 +4°C° 0 mm 4 mps 741 mmHg 78%
    09:00 +5°C° 0 mm 3 mps 741 mmHg 71%
    10:00 +5°C° 0 mm 3 mps 741 mmHg 65%
    11:00 +7°C° 0 mm 2 mps 740 mmHg 59%
    12:00 +7°C° 0 mm 2 mps 740 mmHg 58%
    13:00 +9°C° 0 mm 1 mps 739 mmHg 57%
    14:00 +9°C° 0 mm 1 mps 739 mmHg 56%
    15:00 +8°C° 0.1 mm 1 mps 739 mmHg 60%
    16:00 +8°C° 0.1 mm 1 mps 739 mmHg 64%
    17:00 +7°C° 0.1 mm 1 mps 739 mmHg 69%
    18:00 +5°C° 0 mm 2 mps 739 mmHg 72%
    19:00 +5°C° 0 mm 2 mps 740 mmHg 75%
    20:00 +4°C° 0 mm 2 mps 740 mmHg 78%
    21:00 +3°C° 0 mm 2 mps 741 mmHg 80%
    22:00 +2°C° 0 mm 3 mps 741 mmHg 83%
    23:00 +1°C° 0 mm 3 mps 742 mmHg 85%

    29 September, Saturday

    Time Temperature Precipitation Wind Pressure Humidity
    00:00 0°C° 0 mm 3 mps 742 mmHg 84%
    01:00 0°C° 0 mm 3 mps 743 mmHg 83%
    02:00 -1°C° 0 mm 3 mps 743 mmHg 82%
    03:00 -2°C° 0 mm 4 mps 744 mmHg 81%
    04:00 -2°C° 0 mm 4 mps 744 mmHg 81%
    05:00 -2°C° 0 mm 4 mps 745 mmHg 80%
    06:00 -2°C° 0 mm 4 mps 746 mmHg 76%
    07:00 -1°C° 0 mm 4 mps 746 mmHg 72%
    08:00 0°C° 0 mm 5 mps 747 mmHg 68%
    09:00 +1°C° 0 mm 5 mps 748 mmHg 63%
    10:00 +2°C° 0 mm 5 mps 748 mmHg 58%
    11:00 +5°C° 0 mm 5 mps 749 mmHg 53%
    12:00 +5°C° 0 mm 5 mps 749 mmHg 51%
    13:00 +5°C° 0 mm 5 mps 750 mmHg 49%
    14:00 +5°C° 0 mm 5 mps 750 mmHg 47%
    15:00 +4°C° 0 mm 4 mps 750 mmHg 52%
    16:00 +3°C° 0 mm 4 mps 751 mmHg 57%
    17:00 +2°C° 0 mm 3 mps 751 mmHg 62%
    18:00 +1°C° 0 mm 3 mps 752 mmHg 65%
    19:00 0°C° 0 mm 3 mps 753 mmHg 69%
    20:00 -1°C° 0 mm 3 mps 753 mmHg 72%
    21:00 -1°C° 0 mm 3 mps 754 mmHg 74%
    22:00 -1°C° 0 mm 3 mps 754 mmHg 76%
    23:00 -1°C° 0 mm 3 mps 754 mmHg 78%
    Show more